• In Hungary
  • List of Countries
  • For 7 days
  • Water Temperature
  • Satellite Maps
  • Weather Map
  • News
  • Weather Widgets
  • user-avatar
    Login

    Hourly Weather Horodovychi

    Today, 12 December, Tuesday

    Time Temperature Precipitation Wind Pressure Humidity
    00:00 +5°C° 0 mm 8 mps 723 mmHg 78%
    01:00 +5°C° 0 mm 8 mps 723 mmHg 78%
    02:00 +5°C° 0 mm 5 mps 722 mmHg 83%
    03:00 +5°C° 0 mm 5 mps 723 mmHg 82%
    04:00 +5°C° 0 mm 6 mps 723 mmHg 82%
    05:00 +5°C° 0 mm 7 mps 723 mmHg 81%
    06:00 +5°C° 0 mm 7 mps 723 mmHg 79%
    07:00 +5°C° 0 mm 8 mps 724 mmHg 78%
    08:00 +6°C° 0 mm 8 mps 724 mmHg 77%
    09:00 +6°C° 0 mm 8 mps 724 mmHg 76%
    10:00 +7°C° 0 mm 8 mps 725 mmHg 75%
    11:00 +7°C° 0 mm 8 mps 725 mmHg 74%
    12:00 +7°C° 0 mm 8 mps 726 mmHg 74%
    13:00 +7°C° 0 mm 8 mps 726 mmHg 75%
    14:00 +9°C° 0 mm 8 mps 727 mmHg 75%
    15:00 +8°C° 0 mm 7 mps 727 mmHg 77%
    16:00 +8°C° 0 mm 7 mps 728 mmHg 79%
    17:00 +8°C° 0 mm 6 mps 728 mmHg 80%
    18:00 +8°C° 0.1 mm 5 mps 728 mmHg 82%
    19:00 +8°C° 0.1 mm 5 mps 729 mmHg 84%
    20:00 +8°C° 0.1 mm 4 mps 729 mmHg 86%
    21:00 +7°C° 0.7 mm 4 mps 730 mmHg 87%
    22:00 +7°C° 0.7 mm 3 mps 730 mmHg 87%
    23:00 +7°C° 0.7 mm 3 mps 731 mmHg 88%

    Tomorrow, 13 December, Wednesday

    Time Temperature Precipitation Wind Pressure Humidity
    00:00 +5°C° 1.1 mm 3 mps 731 mmHg 85%
    01:00 +5°C° 1.1 mm 2 mps 732 mmHg 83%
    02:00 +5°C° 1.1 mm 2 mps 732 mmHg 80%
    03:00 +4°C° 1 mm 2 mps 733 mmHg 81%
    04:00 +3°C° 1 mm 2 mps 733 mmHg 82%
    05:00 +3°C° 1 mm 2 mps 733 mmHg 83%
    06:00 +2°C° 1.1 mm 2 mps 733 mmHg 86%
    07:00 +2°C° 1.1 mm 2 mps 734 mmHg 88%
    08:00 +3°C° 1.1 mm 1 mps 734 mmHg 90%
    09:00 +3°C° 0.7 mm 1 mps 734 mmHg 91%
    10:00 +3°C° 0.7 mm 1 mps 734 mmHg 91%
    11:00 +3°C° 0.7 mm 1 mps 734 mmHg 92%
    12:00 +3°C° 0.2 mm 1 mps 734 mmHg 91%
    13:00 +3°C° 0.2 mm 1 mps 734 mmHg 91%
    14:00 +3°C° 0.2 mm 1 mps 734 mmHg 90%
    15:00 +2°C° 0 mm 1 mps 733 mmHg 91%
    16:00 +2°C° 0 mm 1 mps 733 mmHg 92%
    17:00 +2°C° 0 mm 1 mps 733 mmHg 94%
    18:00 +1°C° 0 mm 1 mps 733 mmHg 94%
    19:00 +1°C° 0 mm 1 mps 732 mmHg 94%
    20:00 0°C° 0 mm 1 mps 732 mmHg 94%
    21:00 0°C° 0 mm 1 mps 732 mmHg 94%
    22:00 0°C° 0 mm 1 mps 731 mmHg 93%
    23:00 -3°C° 0 mm 2 mps 731 mmHg 93%

    Day after tomorrow, 14 December, Thursday

    Time Temperature Precipitation Wind Pressure Humidity
    00:00 -2°C° 0 mm 2 mps 731 mmHg 92%
    01:00 -2°C° 0 mm 3 mps 730 mmHg 90%
    02:00 -2°C° 0 mm 3 mps 730 mmHg 89%
    03:00 -3°C° 0 mm 4 mps 729 mmHg 86%
    04:00 -2°C° 0 mm 4 mps 728 mmHg 82%
    05:00 -2°C° 0 mm 5 mps 728 mmHg 79%
    06:00 -3°C° 0 mm 6 mps 728 mmHg 78%
    07:00 -3°C° 0 mm 6 mps 727 mmHg 76%
    08:00 -2°C° 0 mm 7 mps 727 mmHg 74%
    09:00 -2°C° 0 mm 7 mps 727 mmHg 75%
    10:00 -1°C° 0 mm 8 mps 727 mmHg 77%
    11:00 0°C° 0 mm 9 mps 726 mmHg 78%
    12:00 0°C° 0 mm 9 mps 726 mmHg 78%
    13:00 0°C° 0 mm 9 mps 726 mmHg 78%
    14:00 +1°C° 0 mm 9 mps 725 mmHg 79%
    15:00 0°C° 0 mm 8 mps 725 mmHg 79%
    16:00 0°C° 0 mm 8 mps 725 mmHg 80%
    17:00 0°C° 0 mm 7 mps 726 mmHg 81%
    18:00 +1°C° 0 mm 6 mps 725 mmHg 82%
    19:00 +1°C° 0 mm 6 mps 725 mmHg 83%
    20:00 +1°C° 0 mm 6 mps 725 mmHg 84%
    21:00 +1°C° 0.1 mm 5 mps 725 mmHg 84%
    22:00 +1°C° 0.1 mm 5 mps 725 mmHg 84%
    23:00 +3°C° 0.1 mm 4 mps 725 mmHg 85%

    15 December, Friday

    Time Temperature Precipitation Wind Pressure Humidity
    00:00 +1°C° 0 mm 5 mps 724 mmHg 85%
    01:00 +1°C° 0 mm 5 mps 724 mmHg 85%
    02:00 +1°C° 0 mm 5 mps 723 mmHg 85%
    03:00 +1°C° 0 mm 5 mps 722 mmHg 85%
    04:00 +2°C° 0 mm 5 mps 722 mmHg 84%
    05:00 +2°C° 0 mm 5 mps 721 mmHg 84%
    06:00 +2°C° 0 mm 5 mps 721 mmHg 84%
    07:00 +2°C° 0 mm 5 mps 720 mmHg 84%
    08:00 +3°C° 0 mm 5 mps 720 mmHg 84%
    09:00 +3°C° 0.3 mm 5 mps 720 mmHg 84%
    10:00 +5°C° 0.3 mm 5 mps 721 mmHg 85%
    11:00 +5°C° 0.3 mm 5 mps 721 mmHg 86%
    12:00 +5°C° 0.1 mm 4 mps 721 mmHg 84%
    13:00 +5°C° 0.1 mm 4 mps 722 mmHg 83%
    14:00 +5°C° 0.1 mm 3 mps 722 mmHg 82%
    15:00 +4°C° 0 mm 3 mps 722 mmHg 82%
    16:00 +4°C° 0 mm 2 mps 722 mmHg 82%
    17:00 +4°C° 0 mm 1 mps 723 mmHg 83%
    18:00 +4°C° 0 mm 1 mps 723 mmHg 83%
    19:00 +4°C° 0 mm 1 mps 723 mmHg 82%
    20:00 +2°C° 0 mm 0 mps 723 mmHg 82%
    21:00 +3°C° 0.5 mm 1 mps 723 mmHg 82%
    22:00 +3°C° 0.5 mm 1 mps 723 mmHg 83%
    23:00 +3°C° 0.5 mm 1 mps 722 mmHg 83%

    16 December, Saturday

    Time Temperature Precipitation Wind Pressure Humidity
    00:00 +3°C° 1 mm 1 mps 722 mmHg 85%
    01:00 +2°C° 1 mm 1 mps 722 mmHg 87%
    02:00 +2°C° 1 mm 1 mps 722 mmHg 89%
    03:00 +2°C° 0.8 mm 1 mps 722 mmHg 91%
    04:00 +2°C° 0.8 mm 1 mps 721 mmHg 92%
    05:00 +1°C° 0.8 mm 1 mps 721 mmHg 94%
    06:00 +1°C° 0.6 mm 1 mps 721 mmHg 94%
    07:00 +1°C° 0.6 mm 1 mps 722 mmHg 95%
    08:00 +1°C° 0.6 mm 1 mps 722 mmHg 95%
    09:00 +1°C° 0.5 mm 1 mps 722 mmHg 94%
    10:00 +2°C° 0.5 mm 1 mps 723 mmHg 94%
    11:00 +2°C° 0.5 mm 1 mps 723 mmHg 93%
    12:00 +2°C° 0.1 mm 1 mps 724 mmHg 92%
    13:00 +1°C° 0.1 mm 2 mps 724 mmHg 90%
    14:00 +2°C° 0.1 mm 2 mps 724 mmHg 89%
    15:00 +1°C° 0 mm 2 mps 725 mmHg 89%
    16:00 +1°C° 0 mm 2 mps 725 mmHg 88%
    17:00 0°C° 0 mm 3 mps 726 mmHg 88%
    18:00 -1°C° 0 mm 2 mps 727 mmHg 89%
    19:00 -1°C° 0 mm 2 mps 727 mmHg 89%
    20:00 -1°C° 0 mm 2 mps 728 mmHg 90%
    21:00 -2°C° 0 mm 2 mps 728 mmHg 89%
    22:00 -2°C° 0 mm 2 mps 729 mmHg 88%
    23:00 -2°C° 0 mm 3 mps 729 mmHg 87%

    17 December, Sunday

    Time Temperature Precipitation Wind Pressure Humidity
    00:00 -2°C° 0 mm 3 mps 730 mmHg 88%
    01:00 -4°C° 0 mm 3 mps 730 mmHg 88%
    02:00 -3°C° 0 mm 2 mps 730 mmHg 88%
    03:00 -3°C° 0 mm 2 mps 731 mmHg 88%
    04:00 -3°C° 0 mm 2 mps 731 mmHg 88%
    05:00 -3°C° 0 mm 2 mps 731 mmHg 88%
    06:00 -4°C° 0 mm 3 mps 731 mmHg 88%
    07:00 -4°C° 0 mm 3 mps 732 mmHg 88%
    08:00 -4°C° 0 mm 3 mps 732 mmHg 88%
    09:00 -2°C° 0 mm 3 mps 732 mmHg 87%
    10:00 -2°C° 0 mm 4 mps 733 mmHg 85%
    11:00 -2°C° 0 mm 4 mps 733 mmHg 83%
    12:00 -1°C° 0 mm 4 mps 733 mmHg 83%
    13:00 0°C° 0 mm 3 mps 733 mmHg 83%
    14:00 0°C° 0 mm 3 mps 733 mmHg 83%
    15:00 -1°C° 0 mm 3 mps 733 mmHg 85%
    16:00 -1°C° 0 mm 3 mps 734 mmHg 86%
    17:00 -2°C° 0 mm 2 mps 734 mmHg 88%
    18:00 -2°C° 0 mm 2 mps 735 mmHg 89%
    19:00 -2°C° 0 mm 2 mps 735 mmHg 89%
    20:00 -3°C° 0 mm 2 mps 735 mmHg 89%
    21:00 -3°C° 0 mm 2 mps 736 mmHg 89%
    22:00 -3°C° 0 mm 2 mps 736 mmHg 89%
    23:00 -2°C° 0 mm 2 mps 737 mmHg 89%
    Show more